• In Lithuania
  • List of Countries
  • For 7 days
  • Water Temperature
  • Satellite Maps
  • Weather Map
  • Weather Widgets
  • user-avatar
    Login

    Hourly Weather Salzburg

    Today, 17 December, Sunday

    Time Temperature Precipitation Wind Pressure Humidity
    00:00 -9°C° 0.4 mm 2 mps 621 mmHg 95%
    01:00 -8°C° 0 mm 1 mps 621 mmHg 95%
    02:00 -8°C° 0.4 mm 1 mps 621 mmHg 95%
    03:00 -9°C° 0.4 mm 2 mps 621 mmHg 95%
    04:00 -9°C° 0.4 mm 2 mps 621 mmHg 94%
    05:00 -9°C° 0.5 mm 2 mps 621 mmHg 94%
    06:00 -10°C° 0.5 mm 2 mps 622 mmHg 94%
    07:00 -9°C° 0 mm 2 mps 622 mmHg 95%
    08:00 -9°C° 0.5 mm 2 mps 622 mmHg 94%
    09:00 -9°C° 0.5 mm 2 mps 623 mmHg 93%
    10:00 -8°C° 0.5 mm 2 mps 623 mmHg 92%
    11:00 -8°C° 0.5 mm 2 mps 623 mmHg 91%
    12:00 -8°C° 0.5 mm 2 mps 623 mmHg 90%
    13:00 -8°C° 0 mm 2 mps 623 mmHg 88%
    14:00 -8°C° 0.7 mm 2 mps 623 mmHg 90%
    15:00 -8°C° 0.7 mm 2 mps 624 mmHg 91%
    16:00 -9°C° 0.7 mm 2 mps 624 mmHg 93%
    17:00 -9°C° 0.6 mm 2 mps 624 mmHg 93%
    18:00 -9°C° 0.6 mm 2 mps 625 mmHg 93%
    19:00 -10°C° 0.6 mm 2 mps 625 mmHg 94%
    20:00 -10°C° 0.5 mm 2 mps 625 mmHg 94%
    21:00 -10°C° 0.5 mm 2 mps 626 mmHg 93%
    22:00 -10°C° 0.5 mm 2 mps 626 mmHg 93%
    23:00 -12°C° 0.3 mm 2 mps 626 mmHg 93%

    Tomorrow, 18 December, Monday

    Time Temperature Precipitation Wind Pressure Humidity
    00:00 -12°C° 0.3 mm 2 mps 626 mmHg 93%
    01:00 -12°C° 0.3 mm 2 mps 626 mmHg 93%
    02:00 -13°C° 0.1 mm 2 mps 625 mmHg 92%
    03:00 -14°C° 0.1 mm 2 mps 625 mmHg 92%
    04:00 -14°C° 0.1 mm 2 mps 624 mmHg 91%
    05:00 -15°C° 0 mm 2 mps 624 mmHg 89%
    06:00 -15°C° 0 mm 2 mps 624 mmHg 88%
    07:00 -16°C° 0 mm 2 mps 624 mmHg 86%
    08:00 -13°C° 0 mm 1 mps 624 mmHg 85%
    09:00 -11°C° 0 mm 1 mps 624 mmHg 83%
    10:00 -10°C° 0 mm 1 mps 625 mmHg 82%
    11:00 -9°C° 0 mm 1 mps 625 mmHg 79%
    12:00 -8°C° 0 mm 1 mps 625 mmHg 77%
    13:00 -7°C° 0 mm 0 mps 625 mmHg 74%
    14:00 -8°C° 0 mm 0 mps 625 mmHg 78%
    15:00 -9°C° 0 mm 0 mps 624 mmHg 82%
    16:00 -10°C° 0 mm 0 mps 624 mmHg 86%
    17:00 -10°C° 0 mm 1 mps 624 mmHg 86%
    18:00 -11°C° 0 mm 1 mps 624 mmHg 86%
    19:00 -12°C° 0 mm 1 mps 625 mmHg 86%
    20:00 -12°C° 0 mm 1 mps 625 mmHg 86%
    21:00 -12°C° 0 mm 1 mps 625 mmHg 86%
    22:00 -12°C° 0 mm 1 mps 626 mmHg 85%
    23:00 -12°C° 0 mm 1 mps 626 mmHg 86%

    Day after tomorrow, 19 December, Tuesday

    Time Temperature Precipitation Wind Pressure Humidity
    00:00 -12°C° 0 mm 1 mps 626 mmHg 86%
    01:00 -12°C° 0 mm 1 mps 627 mmHg 87%
    02:00 -12°C° 0 mm 1 mps 627 mmHg 87%
    03:00 -12°C° 0 mm 1 mps 627 mmHg 88%
    04:00 -11°C° 0 mm 1 mps 627 mmHg 89%
    05:00 -11°C° 0 mm 1 mps 628 mmHg 89%
    06:00 -11°C° 0 mm 1 mps 628 mmHg 89%
    07:00 -11°C° 0 mm 1 mps 628 mmHg 90%
    08:00 -10°C° 0 mm 1 mps 629 mmHg 89%
    09:00 -9°C° 0 mm 1 mps 630 mmHg 89%
    10:00 -8°C° 0 mm 1 mps 630 mmHg 89%
    11:00 -7°C° 0 mm 1 mps 630 mmHg 88%
    12:00 -6°C° 0 mm 1 mps 631 mmHg 88%
    13:00 -4°C° 0 mm 1 mps 631 mmHg 88%
    14:00 -6°C° 0.1 mm 1 mps 630 mmHg 90%
    15:00 -6°C° 0.1 mm 1 mps 630 mmHg 92%
    16:00 -7°C° 0.1 mm 1 mps 630 mmHg 94%
    17:00 -7°C° 0.2 mm 1 mps 630 mmHg 94%
    18:00 -8°C° 0.2 mm 1 mps 630 mmHg 95%
    19:00 -8°C° 0.2 mm 1 mps 630 mmHg 95%
    20:00 -8°C° 0.3 mm 1 mps 631 mmHg 95%
    21:00 -8°C° 0.3 mm 1 mps 631 mmHg 95%
    22:00 -9°C° 0.3 mm 2 mps 631 mmHg 96%
    23:00 -8°C° 0.4 mm 2 mps 631 mmHg 96%

    20 December, Wednesday

    Time Temperature Precipitation Wind Pressure Humidity
    00:00 -8°C° 0.4 mm 2 mps 631 mmHg 96%
    01:00 -8°C° 0.4 mm 2 mps 630 mmHg 96%
    02:00 -8°C° 0.4 mm 2 mps 630 mmHg 96%
    03:00 -8°C° 0.4 mm 2 mps 630 mmHg 96%
    04:00 -8°C° 0.4 mm 2 mps 630 mmHg 96%
    05:00 -8°C° 0.4 mm 2 mps 630 mmHg 96%
    06:00 -8°C° 0.4 mm 2 mps 630 mmHg 95%
    07:00 -8°C° 0.4 mm 2 mps 630 mmHg 95%
    08:00 -8°C° 0.4 mm 2 mps 630 mmHg 94%
    09:00 -7°C° 0.4 mm 2 mps 630 mmHg 94%
    10:00 -7°C° 0.4 mm 2 mps 631 mmHg 93%
    11:00 -7°C° 0.3 mm 2 mps 631 mmHg 93%
    12:00 -6°C° 0.3 mm 2 mps 631 mmHg 92%
    13:00 -5°C° 0.3 mm 2 mps 630 mmHg 92%
    14:00 -6°C° 0.2 mm 2 mps 630 mmHg 93%
    15:00 -4°C° 0.2 mm 1 mps 630 mmHg 94%
    16:00 -4°C° 0.2 mm 1 mps 630 mmHg 95%
    17:00 -6°C° 0.1 mm 1 mps 630 mmHg 95%
    18:00 -7°C° 0.1 mm 2 mps 630 mmHg 94%
    19:00 -8°C° 0.1 mm 2 mps 630 mmHg 94%
    20:00 -8°C° 0.1 mm 2 mps 631 mmHg 93%
    21:00 -7°C° 0.1 mm 2 mps 631 mmHg 93%
    22:00 -7°C° 0.1 mm 2 mps 631 mmHg 92%
    23:00 -7°C° 0.1 mm 2 mps 631 mmHg 92%

    21 December, Thursday

    Time Temperature Precipitation Wind Pressure Humidity
    00:00 -7°C° 0.1 mm 2 mps 631 mmHg 92%
    01:00 -6°C° 0.1 mm 2 mps 631 mmHg 92%
    02:00 -6°C° 0.8 mm 2 mps 631 mmHg 93%
    03:00 -5°C° 0.8 mm 2 mps 631 mmHg 94%
    04:00 -5°C° 0.8 mm 2 mps 631 mmHg 95%
    05:00 -5°C° 2 mm 2 mps 631 mmHg 95%
    06:00 -4°C° 2 mm 2 mps 631 mmHg 95%
    07:00 -4°C° 2 mm 2 mps 631 mmHg 95%
    08:00 -4°C° 2.1 mm 2 mps 631 mmHg 95%
    09:00 -3°C° 2.1 mm 2 mps 631 mmHg 95%
    10:00 -4°C° 2.1 mm 3 mps 632 mmHg 95%
    11:00 -4°C° 1.7 mm 3 mps 631 mmHg 95%
    12:00 -4°C° 1.7 mm 3 mps 631 mmHg 96%
    13:00 -2°C° 1.7 mm 3 mps 631 mmHg 96%
    14:00 -2°C° 1.6 mm 3 mps 631 mmHg 96%
    15:00 -4°C° 1.6 mm 3 mps 631 mmHg 96%
    16:00 -3°C° 1.6 mm 2 mps 631 mmHg 95%
    17:00 -3°C° 1.2 mm 2 mps 631 mmHg 96%
    18:00 -3°C° 1.2 mm 2 mps 631 mmHg 96%
    19:00 -4°C° 1.2 mm 3 mps 631 mmHg 96%
    20:00 -3°C° 0.9 mm 2 mps 631 mmHg 96%
    21:00 -3°C° 0.9 mm 2 mps 631 mmHg 96%
    22:00 -3°C° 0.9 mm 2 mps 631 mmHg 96%
    23:00 -3°C° 0.9 mm 2 mps 631 mmHg 96%

    22 December, Friday

    Time Temperature Precipitation Wind Pressure Humidity
    00:00 -4°C° 0.9 mm 2 mps 631 mmHg 96%
    01:00 -4°C° 0.9 mm 2 mps 630 mmHg 97%
    02:00 -4°C° 1.3 mm 2 mps 630 mmHg 96%
    03:00 -3°C° 1.3 mm 2 mps 630 mmHg 96%
    04:00 -3°C° 1.3 mm 2 mps 630 mmHg 96%
    05:00 -3°C° 1 mm 2 mps 630 mmHg 96%
    06:00 -4°C° 1 mm 2 mps 630 mmHg 96%
    07:00 -5°C° 1 mm 3 mps 630 mmHg 96%
    08:00 -5°C° 0.4 mm 3 mps 630 mmHg 95%
    09:00 -5°C° 0.4 mm 3 mps 630 mmHg 94%
    10:00 -5°C° 0.4 mm 3 mps 630 mmHg 93%
    11:00 -5°C° 0.5 mm 3 mps 630 mmHg 93%
    12:00 -5°C° 0.5 mm 4 mps 630 mmHg 92%
    13:00 -5°C° 0.5 mm 4 mps 629 mmHg 91%
    14:00 -5°C° 0.3 mm 4 mps 629 mmHg 91%
    15:00 -7°C° 0.3 mm 4 mps 629 mmHg 91%
    16:00 -6°C° 0.3 mm 3 mps 628 mmHg 91%
    17:00 -7°C° 0.4 mm 4 mps 628 mmHg 91%
    18:00 -7°C° 0.4 mm 4 mps 628 mmHg 92%
    19:00 -8°C° 0.4 mm 4 mps 628 mmHg 92%
    20:00 -8°C° 0.5 mm 4 mps 628 mmHg 92%
    21:00 -8°C° 0.5 mm 4 mps 628 mmHg 92%
    22:00 -8°C° 0.5 mm 4 mps 628 mmHg 92%
    23:00 -8°C° 0.6 mm 4 mps 627 mmHg 92%
    Show more